Regional Weather Roundup
Issued by NWS Upton, NY

Home | Current Version | Previous Version | Text Only | Print | Product List | Glossary On
Versions: 1 2 3 4 5 6 7 8 9 10 11 12 13 14 15 16 17 18 19 20 21 22 23 24 25 26 27 28 29 30 31 32 33 34 35 36 37 38 39 40 41 42 43 44 45 46 47 48 49 50
000
ASUS41 KOKX 261709
RWROKX

REGIONAL WEATHER ROUNDUP
NATIONAL WEATHER SERVICE NEW YORK NY
100 PM EDT WED APR 26 2017

NOTE: "FAIR" INDICATES FEW OR NO CLOUDS BELOW 12,000 FEET WITH NO
SIGNIFICANT WEATHER AND/OR OBSTRUCTIONS TO VISIBILITY.

NYZ071-072-176-178-NJZ106-104-261800-
NEW YORK CITY METRO AREA

CITY           SKY/WX    TMP DP  RH WIND       PRES   REMARKS
Central Park   CLOUDY    58  56  93 E9        29.80S
Wall St Helipt CLOUDY    58  54  86 NE15G22   29.77F
Bronx Bot Gard   N/A     59  55  88 NE5       29.78F
LaGuardia APRT CLOUDY    58  53  84 NE9       29.77S
Kennedy INTL   HVY RAIN  59  57  93 N9        29.77S
Breezy Point     N/A     57 N/A N/A N7          N/A
Newark/Liberty CLOUDY    58  57  97 NE10      29.77F
Teterboro      LGT RAIN  60  57  89 N5        29.76F FOG
$$

NYZ177-179-078>081-261800-
LONG ISLAND NEW YORK

CITY           SKY/WX    TMP DP  RH WIND       PRES   REMARKS
Jones Beach      N/A     57 N/A N/A NE10        N/A
Matinecock PT    N/A     52 N/A N/A E14         N/A
Farmingdale    CLOUDY    58  55  90 NE13      29.76S
MacArthur/ISP  DRIZZLE   60  58  92 NE13      29.76S FOG
Shirley        CLOUDY    58  57  97 VRB5      29.77S FOG
Mt Sinai Harb    N/A    N/A N/A N/A CALM        N/A
Westhampton    CLOUDY    58  56  93 NE9       29.78S FOG
East Hampton   CLOUDY    54  53  97 N3        29.78R FOG
Montauk          N/A     58  55  90 VRB3      29.79R
$$

NYZ052-065-067-261800-
HUDSON VALLEY

CITY           SKY/WX    TMP DP  RH WIND       PRES   REMARKS
White Plains   CLOUDY    60  55  83 VRB5      29.77S
Larchmont Harb   N/A     52 N/A N/A NE5         N/A
Croton O-T Hud   N/A     63 N/A N/A NE3         N/A
Newburgh       CLOUDY    59  55  88 E9        29.81S
Montgomery     CLOUDY    60  54  80 N10       29.79R
Poughkeepsie   CLOUDY    58  55  90 N7        29.79S
Albany         CLOUDY    62  55  77 NW6       29.83F
$$

NJZ001-105-106-008-010-013-015-019>022-104-261800-
NEW JERSEY

CITY           SKY/WX    TMP DP  RH WIND       PRES   REMARKS
Newark/Liberty CLOUDY    58  57  97 NE10      29.77F
Teterboro      LGT RAIN  60  57  89 N5        29.76F FOG
Caldwell       CLOUDY    60  55  83 VRB5      29.78F
Somerville     CLOUDY    61  56  83 N5        29.77S
Linden         CLOUDY    60  56  87 NE6       29.78S
Sussex         CLOUDY    59  55  87 NE5       29.80F
Andover          N/A     56  53  90 VRB3      29.80F
Trenton        CLOUDY    61  57  87 NE7       29.78R
Millville      CLOUDY    62  59  90 N6        29.76F
Atlantic City  CLOUDY    64  58  80 NW5       29.75F
Wrightstown    NOT AVBL
Toms River     CLOUDY    60  57  89 N8        29.77F
Belmar         CLOUDY    59  55  87 N8        29.78S
$$

PAZ047>061-062-071-261800-
EASTERN PENNSYLVANIA

CITY           SKY/WX    TMP DP  RH WIND       PRES   REMARKS
Philadelphia   CLOUDY    61  55  81 N6        29.78S
Allentown      CLOUDY    65  56  72 NE9       29.78F
Scranton       PTSUNNY   65  55  70 N13G18    29.78F
$$

CTZ002-004>006-009-010-012-RIZ004-006-007-MAZ004-011-015-261800-
SOUTHERN NEW ENGLAND
 IN CT

CITY           SKY/WX    TMP DP  RH WIND       PRES   REMARKS
Bradley INTL   CLOUDY    56  53  90 N9        29.82F
Hartford       CLOUDY    56  54  93 N10       29.81F
Danbury        CLOUDY    56  55  97 NE10      29.80S
Wtrbury/Oxford CLOUDY    55  52  88 MISG      29.83R
Bridgeport     CLOUDY    61  55  81 N10       29.77S
Meriden        CLOUDY    57  53  86 N8        29.80F
New Haven      CLOUDY    61  56  83 N13       29.77F
Chester        CLOUDY    59  57  94 NE7G13    29.79S
Groton         LGT RAIN  57  56  96 E9        29.78S VSB 1/2
Wilimantic     CLOUDY    60  56  86 NE9       29.81F

 IN RI

CITY           SKY/WX    TMP DP  RH WIND       PRES   REMARKS
Providence     CLOUDY    59  59 100 S3        29.83S FOG
Block Island   CLOUDY    55  54  94 SE7       29.80R FOG
Westerly       CLOUDY    57  57 100 E6        29.80S FOG
 IN MA

CITY           SKY/WX    TMP DP  RH WIND       PRES   REMARKS
Boston         LGT RAIN  55  55 100 E9        29.85F VSB 1/4
Worcester      RAIN      50  48  93 N9        29.84F VSB 1/2
Westfield      CLOUDY    56  53  90 N9        29.83F
Provincetown   CLOUDY    57  56  96 SE16G23   29.86S
Nantucket      FOG       55  54  96 SE23G31   29.82S VSB 1
$$

ANZ330-335-338-340-345-350-353-355-261800-
COASTAL MARINE OBSERVATIONS


STATION/POSITION TIME  SKY/WX   TEMP    WIND        PRES    VSBY  WAVE
                                AIR SEA DIR/SP/G                  HT/PER
                 (UTC)          (F)     (DEG/KT/KT) (MB)    (MI)  (FT/S)
NY HARB ENTRANCE 1550            51 48   20/ 10/ 14 1007.2          7/11
20 S FIRE ISLAND 1650            49 48   60/  6/  8 1007.1          9/12
GREAT SOUTH BAY  1630            57 56   40/ 10/ 10   N/A
23 SSW MONTAUK P 1550            49 45              1007.9          9/11
15 E BARNEGAT LI 1630               50                N/A           8/11
HUDSON CANYON    1550            54 49  200/  2/  4 1007.1          9/11
KINGS POINT      1636            56 48   70/  1/  6 1007.8
EXECUTION ROCKS  NOT AVBL
CENTRAL LI SOUND NOT AVBL
EASTERN LI SOUND NOT AVBL
ROBBINS REEF     1648            57      50/  9/ 10 1008.2
$$


>>>>>>>>>>>>>>>>>>>>>>>>>>>> KEY <<<<<<<<<<<<<<<<<<<<<<<<<<<
>                                                          <
>     SKY/WX - Sky Condition/Present Weather               <
>     TMP    - Temperature in Fahrenheit                   <
>     DP     - Dew Point in Fahrenheit                     <
>     RH     - Relative Humidity in Percent                <
>     WIND   - Direction (from) and Speed in MPH           <
>     PRES   - Mean Sea Level Pressure (inches of Hg)      <
>     WCI    - Wind Chill Index                            <
>     VSB    - VISIBILITY IN MILES                         <
>     HX     - HEAT INDEX                                  <
>     TC     - TEMPERATURE IN CELSIUS                      <
>     VRB    - VARIABLE WIND DIRECTION                     <
>                                                          <
>>>>>>>>>>>>>>>>>>>>>>>>>>>> KEY <<<<<<<<<<<<<<<<<<<<<<<<<<<



USA.gov is the U.S. government's official web portal to all federal, state and local government web resources and services.